Location: Poughquag
(41.6090°N, 73.6820°W)
Time: 03:02:43
(UTC-04:00)

S-56A Canister/Altair - Pass Details

Date: 03 June 2020
Orbit: 633 x 2499 km, 38.9° (Epoch: 06 July)

Event Time Altitude Azimuth Distance (km) Brightness Sun altitude
Rises 11:46:06 0° 276° (W) 4,740 11.4 66.2°
Reaches altitude 10° 11:50:09 10° 260° (W) 4,069 11.2 66.7°
Maximum altitude 11:57:18 20° 219° (SW) 3,809 11.4 67.5°
Drops below altitude 10° 12:05:50 10° 181° (S) 4,942 12.1 68.4°
Sets 12:11:37 0° 166° (SSE) 6,107 12.4 68.9°
